When you browse on this site, cookies collect data to enhance your experience and personalize the content and advertising you see.
Visit our Privacy Policy to learn more. By continuing to use the site, you agree to this use of cookies and data.
  • Em Portugal
  • Lista de países
  • Para 7 dias
  • Temperatura da água
  • Mapas de satélite
  • Mapa do tempo
  • Widgets de tempo
  • user-avatar
    Iniciar Sessão

    Previsão horária em Bandar Abbas

    Hoje, 20 Novembro, Terça-feira

    Tempo Temperatura Precipitação Vento Pressão Humidade
    00:00 +27°C° 0 mm 2 m/s 761 mmHg 64%
    01:00 +26°C° 0 mm 2 m/s 761 mmHg 66%
    02:00 +26°C° 0 mm 2 m/s 761 mmHg 67%
    03:00 +25°C° 0 mm 2 m/s 761 mmHg 69%
    04:00 +25°C° 0 mm 1 m/s 761 mmHg 73%
    05:00 +25°C° 0 mm 1 m/s 761 mmHg 74%
    06:00 +25°C° 0 mm 1 m/s 761 mmHg 74%
    07:00 +24°C° 0 mm 1 m/s 761 mmHg 75%
    08:00 +26°C° 0 mm 1 m/s 762 mmHg 67%
    09:00 +27°C° 0 mm 1 m/s 762 mmHg 59%
    10:00 +29°C° 0 mm 1 m/s 762 mmHg 49%
    11:00 +30°C° 0 mm 2 m/s 762 mmHg 47%
    12:00 +30°C° 0 mm 2 m/s 761 mmHg 44%
    13:00 +31°C° 0 mm 3 m/s 761 mmHg 42%
    14:00 +31°C° 0 mm 3 m/s 761 mmHg 43%
    15:00 +30°C° 0 mm 3 m/s 760 mmHg 44%
    16:00 +30°C° 0 mm 4 m/s 760 mmHg 45%
    17:00 +29°C° 0.1 mm 3 m/s 760 mmHg 49%
    18:00 +29°C° 0.1 mm 3 m/s 760 mmHg 53%
    19:00 +28°C° 0.1 mm 3 m/s 761 mmHg 57%
    20:00 +27°C° 0 mm 3 m/s 761 mmHg 60%
    21:00 +27°C° 0 mm 3 m/s 761 mmHg 63%
    22:00 +26°C° 0 mm 3 m/s 761 mmHg 66%
    23:00 +26°C° 0.1 mm 3 m/s 761 mmHg 68%

    Amanhã, 21 Novembro, Quarta-feira

    Tempo Temperatura Precipitação Vento Pressão Humidade
    00:00 +26°C° 0.1 mm 3 m/s 761 mmHg 69%
    01:00 +25°C° 0.1 mm 4 m/s 760 mmHg 70%
    02:00 +25°C° 0.2 mm 4 m/s 760 mmHg 71%
    03:00 +25°C° 0.2 mm 4 m/s 760 mmHg 72%
    04:00 +23°C° 0.2 mm 5 m/s 760 mmHg 73%
    05:00 +23°C° 0 mm 4 m/s 760 mmHg 74%
    06:00 +23°C° 0 mm 4 m/s 760 mmHg 74%
    07:00 +23°C° 0 mm 4 m/s 760 mmHg 75%
    08:00 +25°C° 0 mm 4 m/s 761 mmHg 67%
    09:00 +26°C° 0 mm 4 m/s 761 mmHg 59%
    10:00 +27°C° 0 mm 4 m/s 761 mmHg 51%
    11:00 +28°C° 0 mm 4 m/s 761 mmHg 47%
    12:00 +29°C° 0 mm 4 m/s 760 mmHg 43%
    13:00 +29°C° 0 mm 4 m/s 760 mmHg 39%
    14:00 +29°C° 0 mm 5 m/s 759 mmHg 37%
    15:00 +29°C° 0 mm 5 m/s 759 mmHg 36%
    16:00 +30°C° 0 mm 5 m/s 759 mmHg 35%
    17:00 +29°C° 0 mm 5 m/s 759 mmHg 37%
    18:00 +28°C° 0 mm 5 m/s 760 mmHg 40%
    19:00 +27°C° 0 mm 5 m/s 760 mmHg 43%
    20:00 +27°C° 0 mm 4 m/s 760 mmHg 46%
    21:00 +26°C° 0 mm 4 m/s 761 mmHg 49%
    22:00 +26°C° 0 mm 3 m/s 761 mmHg 52%
    23:00 +25°C° 0 mm 3 m/s 761 mmHg 53%

    Depois de amanhã, 22 Novembro, Quinta-feira

    Tempo Temperatura Precipitação Vento Pressão Humidade
    00:00 +25°C° 0 mm 3 m/s 761 mmHg 55%
    01:00 +24°C° 0 mm 3 m/s 761 mmHg 57%
    02:00 +24°C° 0 mm 2 m/s 761 mmHg 59%
    03:00 +24°C° 0 mm 2 m/s 761 mmHg 60%
    04:00 +23°C° 0 mm 2 m/s 761 mmHg 62%
    05:00 +23°C° 0 mm 2 m/s 761 mmHg 63%
    06:00 +23°C° 0 mm 2 m/s 761 mmHg 65%
    07:00 +23°C° 0 mm 2 m/s 762 mmHg 66%
    08:00 +24°C° 0 mm 2 m/s 762 mmHg 61%
    09:00 +25°C° 0 mm 1 m/s 763 mmHg 56%
    10:00 +27°C° 0 mm 1 m/s 763 mmHg 51%
    11:00 +27°C° 0 mm 2 m/s 762 mmHg 48%
    12:00 +28°C° 0 mm 2 m/s 762 mmHg 46%
    13:00 +28°C° 0 mm 2 m/s 761 mmHg 43%
    14:00 +29°C° 0 mm 2 m/s 761 mmHg 43%
    15:00 +29°C° 0 mm 2 m/s 761 mmHg 43%
    16:00 +29°C° 0 mm 2 m/s 760 mmHg 43%
    17:00 +28°C° 0 mm 2 m/s 761 mmHg 47%
    18:00 +27°C° 0 mm 2 m/s 761 mmHg 51%
    19:00 +27°C° 0 mm 2 m/s 762 mmHg 55%
    20:00 +26°C° 0 mm 1 m/s 762 mmHg 58%
    21:00 +26°C° 0 mm 1 m/s 762 mmHg 61%
    22:00 +25°C° 0 mm 1 m/s 763 mmHg 65%
    23:00 +25°C° 0 mm 1 m/s 763 mmHg 66%

    23 Novembro, Sexta-feira

    Tempo Temperatura Precipitação Vento Pressão Humidade
    00:00 +22°C° 0 mm 0 m/s 763 mmHg 68%
    01:00 +22°C° 0 mm 0 m/s 762 mmHg 70%
    02:00 +21°C° 0 mm 0 m/s 762 mmHg 72%
    03:00 +21°C° 0 mm 0 m/s 762 mmHg 73%
    04:00 +21°C° 0 mm 0 m/s 762 mmHg 75%
    05:00 +22°C° 0 mm 1 m/s 762 mmHg 76%
    06:00 +22°C° 0 mm 1 m/s 763 mmHg 77%
    07:00 +22°C° 0 mm 1 m/s 763 mmHg 78%
    08:00 +23°C° 0 mm 1 m/s 764 mmHg 69%
    09:00 +25°C° 0 mm 1 m/s 764 mmHg 60%
    10:00 +27°C° 0 mm 1 m/s 765 mmHg 52%
    11:00 +27°C° 0 mm 2 m/s 764 mmHg 46%
    12:00 +28°C° 0 mm 2 m/s 763 mmHg 39%
    13:00 +29°C° 0 mm 2 m/s 763 mmHg 33%
    14:00 +29°C° 0 mm 2 m/s 762 mmHg 34%
    15:00 +29°C° 0 mm 2 m/s 762 mmHg 34%
    16:00 +29°C° 0 mm 2 m/s 762 mmHg 35%
    17:00 +28°C° 0 mm 2 m/s 762 mmHg 40%
    18:00 +27°C° 0 mm 2 m/s 763 mmHg 45%
    19:00 +26°C° 0 mm 1 m/s 763 mmHg 50%
    20:00 +25°C° 0 mm 1 m/s 764 mmHg 52%
    21:00 +25°C° 0 mm 1 m/s 764 mmHg 53%
    22:00 +24°C° 0 mm 1 m/s 764 mmHg 54%
    23:00 +24°C° 0 mm 1 m/s 764 mmHg 53%

    24 Novembro, Sábado

    Tempo Temperatura Precipitação Vento Pressão Humidade
    00:00 +24°C° 0 mm 1 m/s 764 mmHg 52%
    01:00 +24°C° 0 mm 1 m/s 764 mmHg 51%
    02:00 +23°C° 0 mm 1 m/s 764 mmHg 50%
    03:00 +23°C° 0 mm 1 m/s 764 mmHg 49%
    04:00 +23°C° 0 mm 2 m/s 764 mmHg 48%
    05:00 +23°C° 0 mm 2 m/s 764 mmHg 48%
    06:00 +23°C° 0 mm 2 m/s 765 mmHg 48%
    07:00 +21°C° 0 mm 2 m/s 765 mmHg 48%
    08:00 +24°C° 0 mm 2 m/s 765 mmHg 46%
    09:00 +26°C° 0 mm 2 m/s 766 mmHg 44%
    10:00 +27°C° 0 mm 2 m/s 766 mmHg 42%
    11:00 +28°C° 0 mm 2 m/s 765 mmHg 41%
    12:00 +29°C° 0 mm 2 m/s 765 mmHg 41%
    13:00 +29°C° 0 mm 2 m/s 764 mmHg 40%
    14:00 +29°C° 0 mm 2 m/s 764 mmHg 40%
    15:00 +30°C° 0 mm 2 m/s 763 mmHg 41%
    16:00 +30°C° 0 mm 2 m/s 763 mmHg 42%
    17:00 +29°C° 0 mm 2 m/s 763 mmHg 47%
    18:00 +28°C° 0 mm 1 m/s 764 mmHg 52%
    19:00 +27°C° 0 mm 1 m/s 764 mmHg 57%
    20:00 +27°C° 0 mm 1 m/s 764 mmHg 59%
    21:00 +26°C° 0 mm 1 m/s 764 mmHg 61%
    22:00 +26°C° 0 mm 1 m/s 764 mmHg 63%
    23:00 +25°C° 0 mm 1 m/s 764 mmHg 63%

    25 Novembro, Domingo

    Tempo Temperatura Precipitação Vento Pressão Humidade
    00:00 +25°C° 0 mm 1 m/s 764 mmHg 63%
    01:00 +25°C° 0 mm 1 m/s 764 mmHg 62%
    02:00 +24°C° 0 mm 1 m/s 763 mmHg 63%
    03:00 +24°C° 0 mm 1 m/s 763 mmHg 64%
    04:00 +24°C° 0 mm 1 m/s 763 mmHg 64%
    05:00 +24°C° 0 mm 1 m/s 763 mmHg 64%
    06:00 +23°C° 0 mm 2 m/s 764 mmHg 64%
    07:00 +23°C° 0 mm 2 m/s 764 mmHg 64%
    08:00 +25°C° 0 mm 2 m/s 764 mmHg 55%
    09:00 +27°C° 0 mm 1 m/s 764 mmHg 47%
    10:00 +29°C° 0 mm 1 m/s 764 mmHg 38%
    11:00 +30°C° 0 mm 1 m/s 764 mmHg 36%
    12:00 +30°C° 0 mm 1 m/s 763 mmHg 33%
    13:00 +31°C° 0 mm 1 m/s 762 mmHg 30%
    14:00 +31°C° 0 mm 1 m/s 762 mmHg 30%
    15:00 +31°C° 0 mm 2 m/s 761 mmHg 31%
    16:00 +31°C° 0 mm 2 m/s 761 mmHg 31%
    17:00 +30°C° 0 mm 1 m/s 762 mmHg 35%
    18:00 +29°C° 0 mm 1 m/s 762 mmHg 39%
    19:00 +28°C° 0 mm 1 m/s 762 mmHg 42%
    20:00 +28°C° 0 mm 1 m/s 762 mmHg 44%
    21:00 +25°C° 0 mm 0 m/s 762 mmHg 46%
    22:00 +25°C° 0 mm 0 m/s 762 mmHg 48%
    23:00 +24°C° 0 mm 0 m/s 762 mmHg 48%
    Mostrar mais